[[{"header":{"parameterUnit":"m.s-1","parameterCategory":1,"la1":30.2992,"la2":30.254,"lo1":-89.0895,"lo2":-89.0443,"dy":0.0025,"dx":0.0025,"nx":19,"ny":19,"refTime":"2026-04-08T21:00:00:Z","depth":0,"parameterNumber":2,"parameterNumberName":"U-component_of_WINDS"},"data":[0,0,0,-6.9027,-6.903,-6.9172,-6.9172,-6.94,-6.9402,0,0,0,0,0,0,0,0,0,0,0,-6.9014,-6.9017,-6.9026,-6.9031,-6.9172,-6.9172,-6.9399,-6.9402,0,0,0,0,0,0,0,0,0,0,0,-6.9013,-6.9016,-6.9019,-6.9031,-6.9172,-6.9172,-6.9399,-6.9275,0,0,0,0,0,0,0,0,0,0,-6.913,-6.9147,-6.9015,-6.9019,-6.9032,-6.9172,-6.9172,-6.9268,-6.9283,-6.9356,0,-6.943,0,-6.942,-6.942,-6.9421,0,0,0,-6.9009,-6.9136,-6.9147,-6.902,-6.9034,-6.9172,-6.9102,-6.9276,-6.9292,-6.9375,-6.9432,-6.944,-6.9424,-6.9422,-6.9424,-6.9919,-6.9922,0,0,-6.9001,-6.9055,-6.9136,-6.9159,-6.9142,-6.9098,-6.9107,-6.9285,-6.9351,-6.9433,-6.9444,-6.9427,-6.9424,-6.9426,-6.9916,-6.992,0,0,0,-6.8993,-6.9051,-6.9057,-6.9151,-6.9173,-6.9102,-6.9113,-6.9343,-6.934,-6.9446,-6.943,-6.9426,-6.9429,-6.9912,-6.9917,-7.0134,0,0,0,-6.8987,-6.9046,-6.9055,-6.909,-6.9171,-6.926,-6.9167,-6.9328,-6.9346,-6.9429,-6.9426,-6.9432,-6.9908,-6.9915,-7.012,-7.0227,0,0,0,-6.8995,-6.9047,-6.9078,-6.9092,-6.9155,-6.9256,-6.9263,-6.933,-6.9338,-6.9422,-6.9432,-6.9906,-6.9914,-7.0108,-7.0206,-7.0371,0,0,0,-6.9018,-6.927,-6.9082,-6.9357,-6.9155,-6.939,-6.9261,-6.9434,-6.9532,-6.9427,-6.9909,-6.9917,-7.0104,-7.0194,-7.0358,-7.0518,-7.059,0,0,-6.9366,-6.9314,-6.9471,-6.9307,-6.959,-6.9364,-6.9678,-6.9716,-6.9675,-6.984,-6.9851,-7.0125,-7.0205,-7.0368,-7.0981,-7.1039,0,0,0,-6.96,-6.9713,-6.9776,-6.9872,-6.9907,-6.9945,-6.9929,-6.9943,-7.008,-6.9771,-7.0228,-7.0274,-7.0368,-7.0441,-7.0491,-7.0566,-6.9954,-6.9953,-6.9952,-7.0169,-7.0102,-7.0356,-7.0305,-7.04,-7.038,-7.045,-7.0464,-7.037,-7.0479,-7.0527,-7.0907,-7.0996,-7.1032,-7.1112,-7.0608,-7.0609,-7.0609,-7.061,-7.067,-7.0818,-7.0685,-7.0884,-7.081,-7.0976,-7.0967,-7.0894,-7.1036,-7.0866,-7.0945,-7.0763,-7.1098,-7.1163,-7.0626,-7.0623,-7.0621,-7.062,-7.0618,-7.1033,-7.1092,-7.1105,-7.1234,-7.1342,-7.1282,-7.1424,-7.1353,-7.1286,-7.1365,-7.1405,-7.1401,-7.1386,-7.139,-7.1391,-7.1392,-7.1393,-7.1394,-7.1395,-7.1404,-7.1411,-7.154,-7.1597,-7.1648,-7.1706,-7.1688,-7.1735,-7.1769,-7.1706,-7.1706,-7.1599,-7.1144,-7.103,-7.1415,-7.1412,-7.1409,-7.1407,-7.1406,-7.1932,-7.1801,-7.2,-7.2051,-7.2111,-7.2221,-7.2128,-7.2231,-7.226,-7.2332,-7.2208,-7.1885,-7.1825,-7.1786,-7.169,-7.2223,-7.2223,-7.2223,-7.2223,-7.2236,-7.22,-7.2385,-7.2471,-7.2546,-7.2482,-7.2707,-7.2695,-7.2663,-7.2676,-7.2589,-7.2457,-7.242,-7.2383,-7.233,-7.2239,-7.2901,-7.2901,-7.2902,-7.2555,-7.2522,-7.2728,-7.2694,-7.2735,-7.2772,-7.298,-7.3082,-7.3018,-7.2928,-7.2684,-7.2655,-7.2442,-7.2376,-7.2279,-7.2199,-7.2031,0,0]},{"header":{"parameterUnit":"m.s-1","parameterCategory":1,"la1":30.2992,"la2":30.254,"lo1":-89.0895,"lo2":-89.0443,"dy":0.0025,"dx":0.0025,"nx":19,"ny":19,"refTime":"2026-04-08T21:00:00:Z","depth":0,"parameterNumber":3,"parameterNumberName":"V-component_of_WINDS"},"data":[0,0,0,0.5245,0.5245,0.527,0.527,0.531,0.531,0,0,0,0,0,0,0,0,0,0,0,0.5241,0.5241,0.5245,0.5245,0.527,0.527,0.531,0.531,0,0,0,0,0,0,0,0,0,0,0,0.5241,0.5241,0.5242,0.5245,0.527,0.527,0.531,0.5288,0,0,0,0,0,0,0,0,0,0,0.5263,0.5263,0.5241,0.5242,0.5246,0.527,0.527,0.5287,0.529,0.5302,0,0.5313,0,0.5312,0.5313,0.5313,0,0,0,0.5243,0.5261,0.5264,0.5242,0.5246,0.527,0.5258,0.5288,0.5291,0.5305,0.5313,0.5314,0.5313,0.5314,0.5314,0.5392,0.5393,0,0,0.5241,0.5247,0.5262,0.5266,0.5262,0.5257,0.5259,0.529,0.5299,0.5313,0.5315,0.5313,0.5314,0.5314,0.5392,0.5393,0,0,0,0.5239,0.5247,0.5249,0.5265,0.5269,0.5258,0.526,0.5298,0.5298,0.5316,0.5314,0.5314,0.5315,0.5391,0.5392,0.5423,0,0,0,0.5238,0.5245,0.5249,0.5253,0.5268,0.5283,0.5267,0.5296,0.5299,0.5314,0.5314,0.5315,0.5391,0.5392,0.5421,0.5437,0,0,0,0.5238,0.5245,0.525,0.5253,0.5264,0.5283,0.5285,0.5297,0.5299,0.5314,0.5315,0.539,0.5392,0.5419,0.5433,0.546,0,0,0,0.524,0.5276,0.5251,0.5291,0.5264,0.5302,0.5284,0.5312,0.5329,0.5314,0.5391,0.5392,0.5419,0.5432,0.5458,0.5483,0.5494,0,0,0.529,0.5283,0.5306,0.5284,0.5328,0.5297,0.5346,0.5355,0.5351,0.5379,0.5381,0.5422,0.5433,0.5459,0.5554,0.5563,0,0,0,0.5324,0.5341,0.5351,0.5368,0.5376,0.5385,0.5385,0.5389,0.5413,0.5366,0.5438,0.5445,0.546,0.5472,0.5479,0.5492,0.5398,0.5398,0.5398,0.5403,0.5396,0.5435,0.5432,0.5448,0.545,0.5463,0.5469,0.5456,0.5474,0.5482,0.554,0.5554,0.556,0.5573,0.5495,0.5495,0.5495,0.5495,0.5475,0.5499,0.5484,0.5516,0.5509,0.5537,0.5541,0.5532,0.5558,0.5533,0.5546,0.5519,0.5569,0.5581,0.5497,0.5497,0.5497,0.5496,0.5496,0.5526,0.5536,0.5541,0.5565,0.5585,0.5581,0.5607,0.56,0.5594,0.5607,0.5616,0.5615,0.5614,0.5612,0.5612,0.5612,0.5612,0.5612,0.5612,0.5577,0.5581,0.5603,0.5617,0.5628,0.5641,0.5646,0.5656,0.5667,0.566,0.566,0.5647,0.5575,0.5558,0.5616,0.5615,0.5615,0.5614,0.5614,0.5653,0.5635,0.5669,0.568,0.5697,0.5719,0.571,0.5733,0.5741,0.5755,0.574,0.5688,0.5681,0.5675,0.566,0.5741,0.5741,0.5741,0.5741,0.5696,0.5692,0.5726,0.5745,0.5762,0.5759,0.58,0.5805,0.5807,0.5812,0.58,0.578,0.5774,0.577,0.5762,0.5748,0.585,0.585,0.585,0.5743,0.574,0.5775,0.5777,0.5791,0.5803,0.5842,0.5866,0.5864,0.5854,0.5816,0.5812,0.578,0.577,0.5757,0.5745,0.5719,0,0]}]]